Tracking 31027 objects as of 19-Jul-2025
HD Live streaming from Space Station
objects crossing your sky now

STARLINK-30567

Track STARLINK-30567 now!
10-day predictions
STARLINK-30567 is classified as:


NORAD ID: 58067
Int'l Code: 2023-158S
Perigee: 565.2 km
Apogee: 567.2 km
Inclination: 43.0 °
Period: 95.8 minutes
Semi major axis: 6937 km
RCS: Unknown
Launch date: October 13, 2023
Source: United States (US)
Launch site: AIR FORCE EASTERN TEST RANGE (AFETR)
Your satellite tracking list
IRIDIUM 106
Track 1 satellite(s)




NASA's NSSDC Master Catalog

Two Line Element Set (TLE):
1 58067U 23158S   25199.40064002  .00000367  00000-0  42267-4 0  9998
2 58067  43.0022 223.7688 0001485 282.8426  77.2251 15.02536297 98286
Source of the keplerian elements: AFSPC